Location: Casteau
(50.5142°N, 4.0161°E)
Time: 14:55:48
(UTC+00:00)

Explorer 11/Cluster Stage 4 - Pass Details

Date: 05 August 2021
Orbit: 467 x 1256 km, 28.8° (Epoch: 23 September)

Event Time Altitude Azimuth Distance (km) Brightness Sun altitude
Rises 07:18:46 0° 211° (SSW) 3,858 9.9 27.0°
Reaches altitude 10° 07:24:10 10° 178° (S) 3,074 9.8 27.9°
Maximum altitude 07:26:03 11° 164° (SSE) 3,043 10.0 28.2°
Drops below altitude 10° 07:27:59 10° 150° (SSE) 3,158 10.3 28.5°
Sets 07:33:50 0° 119° (ESE) 4,192 11.3 29.4°
